Home   Weather   Jülich   Past weeks

Flag for Germany Past Weather in Jülich, North Rhine-Westphalia, Germany — Yesterday and Last 2 Weeks

Now
52 °F

Clear.


Feels Like: 51 °F
Forecast: 39 / 49 °F
Wind: 3 mph from Southwest

Location: Geilenkirchen Airport

Current Time: Apr 25, 2017 at 12:48:10 am

Latest Report: Apr 24, 2017 at 11:50 pm


Visibility: 10 mi

Pressure: 29.77 "Hg

Humidity: 72%

Dew Point: 43 °F

Location of JülichLocation

Past Weather in Jülich — Graph

°F

Jülich Temperature Yesterday

Maximum temperature yesterday: 59 °F (at 2:50 pm)
Minimum temperature yesterday: 32 °F (at 5:50 am)
Average temperature yesterday: 48 °F

High & Low Weather Summary for the Past Weeks

 TemperatureHumidityPressure
High59 °F (Apr 10, 3:50 am)93% (Apr 11, 5:50 am)30.66 "Hg (Apr 11, 5:50 am)
Low27 °F (Apr 20, 3:50 am)33% (Apr 20, 4:50 pm)29.77 "Hg (Apr 24, 11:50 pm)
Average47 °F66%30.27 "Hg
* Reported Apr 9 11:50 pm — Apr 24 11:50 pm, Jülich, Weather by CustomWeather, © 2017

Note: Actual official high and low records may vary slightly from our data, if they occured in-between our weather recording intervals... More about our weather records

Advertising

Jülich Weather History for the Previous 24 Hours

Scroll right to see more
 ConditionsComfort  
Time TempWeatherWind HumidityBarometerVisibility
11:50 pm
Mon, Apr 24
52 °FClear.3 mph72%29.77 "Hg10 mi
10:50 pm52 °FClear.6 mph67%29.80 "Hg10 mi
9:50 pm54 °FClear.8 mph58%29.80 "Hg10 mi
8:50 pm55 °FClear.10 mph51%29.83 "Hg10 mi
7:50 pm57 °FSunny.9 mph48%29.83 "Hg10 mi
6:50 pm57 °FSunny.15 mph44%29.86 "Hg10 mi
5:50 pm59 °FSunny.13 mph45%29.89 "Hg10 mi
4:50 pm59 °FSunny.15 mph45%29.89 "Hg10 mi
3:50 pm59 °FSunny.17 mph45%29.92 "Hg10 mi
2:50 pm59 °FSunny.14 mph45%29.95 "Hg10 mi
1:50 pm57 °FSunny.14 mph44%29.98 "Hg10 mi
12:50 pm55 °FSunny.14 mph47%30.01 "Hg10 mi
11:50 am54 °FSunny.13 mph47%30.04 "Hg10 mi
10:50 am52 °FSunny.10 mph50%30.07 "Hg10 mi
9:50 am50 °FSunny.10 mph50%30.07 "Hg10 mi
8:50 am46 °FSunny.10 mph57%30.09 "Hg10 mi
7:50 am43 °FSunny.5 mph66%30.09 "Hg10 mi
6:50 am36 °FSunny.5 mph87%30.09 "Hg10 mi
5:50 am32 °FClear.5 mph93%30.12 "Hg10 mi
4:50 am34 °FClear.7 mph87%30.15 "Hg10 mi
3:50 am34 °FClear.3 mph87%30.15 "Hg10 mi
2:50 am34 °FClear.6 mph93%30.18 "Hg10 mi
1:50 am34 °FClear.5 mph93%30.21 "Hg10 mi
12:50 am36 °FClear.5 mph87%30.21 "Hg10 mi
Weather by CustomWeather, © 2017

See weather overviewHow to use our weather pages